Погода в Екатериновке

Россия / Ульяновская область     54°03′50″N   48°30′57″E
темп.,
°C
ветер,
м/с
пор.,
м/с
влажн.,
%
обл.,
%
осадки,
мм/ч
давл.,
гПа
погр.,
м
23 апреля, пт
пт2301:00+6ю49845 0.0 1024187
04:00+4ю369127 0.0 1025126
07:00+5ююв24905 0.0 1025120
10:00+8ююв457581 0.0 1026374
13:00+12вюв3462100 0.0 1024706
16:00+12вюв3459100 0.0 1022947
19:00+10в2568100 0.0 1021183
22:00+8всв1178100 0.0 102017
24 апреля, сб
сб2401:00+7всв1182100 0.0 101812
04:00+6в1184100 0.0 101613
07:00+6ююв1286100 0.0 1015101
10:00+8ююв1174100 0.1 1013769
13:00+7в3387100 0.8 1012275
16:00+9вюв4480100 0.8 1010480
19:00+8юв488595 0.0 1009354
22:00+8ююв51188100 0.4 1007390
25 апреля, вс
вс2501:00+8ю61188100 0.2 1004649
04:00+4зюз71284100 3.3 1006902
07:00+4юз51077100 0.0 1006841
10:00+7зюз71066100 0.3 10071397
13:00+7з7106573 0.4 10101282
16:00+9зюз8114684 0.8 10112285
19:00+7зюз7115344 0.2 10131262
22:00+5зюз613625 0.2 1016635
26 апреля, пн
пн2601:00+4юз613660 0.0 1016469
04:00+3юз614713 0.0 1017374
07:00+3юз513675 0.0 1018437
10:00+8юз7114410 0.0 10171222
13:00+10юз79395 0.0 10161574
16:00+11юз574184 0.0 10151912
19:00+10ююз355294 0.0 1014197
22:00+6ю266366 0.0 1014153
27 апреля, вт
вт2701:00+5ююз366648 0.0 1012110
04:00+4ю356668 0.0 101076
07:00+5ю4106420 0.0 1009276
10:00+7зюз798296 0.0 1009831
13:00+7з686446 0.1 10101023
16:00+9зюз584276 0.1 10091936
19:00+7зюз5862100 0.6 10091222
22:00+5зюз5116793 1.1 1010590